Volk, WI

8:36 AM CDT on August 16, 2017 (GMT -0500)
Volk

Weather History for KVOK - April, 2013

Change the Weather History Date:

Thursday, April 4, 2013

  Actual Average Record
Temperature  
Mean Temperature 40 °F -  
Max Temperature 53 °F 48 °F 73 °F (1997)
Min Temperature 28 °F 32 °F 20 °F (2007)
Degree Days  
Heating Degree Days 26    
Moisture  
Dew Point 25 °F    
Average Humidity 52    
Maximum Humidity 86    
Minimum Humidity 40    
Precipitation  
Precipitation 0.00 in - - ()
Sea Level Pressure  
Sea Level Pressure 30.07 in    
Wind  
Wind Speed 12 mph (WSW)    
Max Wind Speed 18 mph    
Max Gust Speed 24 mph    
Visibility 10 miles    
Events Rain    
Averages and records for this station are not official NWS values.
T = Trace of Precipitation, MM = Missing Value Source: NWS Daily Summary

Daily Weather History Graph

Daily Weather History Graph

Search for Another Location

Airport or City:

Trip Planner

Search our weather history database for the weather conditions in past years. The results will help you decide how hot, cold, wet, or windy it might be!

Date:

Astronomy

Apr. 04, 2013 Rise Set
Actual Time 6:36 AM CDT 7:32 PM CDT
Civil Twilight 6:07 AM CDT 8:01 PM CDT
Nautical Twilight 5:32 AM CDT 8:36 PM CDT
Astronomical Twilight 4:56 AM CDT 9:13 PM CDT
Moon 3:14 AM CDT (4/4) 1:39 PM CDT (4/4)
Length of Visible Light 13h 54m
Length of Day
12h 55m
Waning Crescent, 33% of the Moon is Illuminated
Apr 4
Waning Crescent
Apr 10
New
Apr 18
First Quarter
Apr 25
Full
May 2
Last Quarter

Hourly Weather History & Observations

Time (CDT) Temp. Windchill Dew Point Humidity Pressure Visibility Wind Dir Wind Speed Gust Speed Precip Events Conditions
12:55 AM 35.8 °F 27.8 °F 17.6 °F 48% 30.20 in 10.0 mi SSW 11.5 mph - N/A   Clear
1:55 AM 35.4 °F 26.4 °F 17.8 °F 49% 30.16 in 10.0 mi SSW 13.8 mph - N/A   Clear
2:55 AM 35.6 °F 27.5 °F 17.1 °F 47% 30.13 in 10.0 mi SSW 11.5 mph - N/A   Clear
3:55 AM 36.1 °F 28.2 °F 17.1 °F 46% 30.14 in 10.0 mi SSW 11.5 mph - N/A   Clear
4:55 AM 36.9 °F 30.7 °F 16.7 °F 44% 30.13 in 10.0 mi SSW 8.1 mph - N/A   Clear
5:55 AM 37.6 °F 32.3 °F 17.2 °F 44% 30.12 in 10.0 mi SW 6.9 mph - N/A   Clear
6:55 AM 39.2 °F 31.2 °F 17.6 °F 42% 30.09 in 10.0 mi SW 13.8 mph 20.7 mph N/A   Scattered Clouds
7:55 AM 41.0 °F 34.7 °F 19.4 °F 42% 30.09 in 10.0 mi WSW 10.4 mph - N/A   Scattered Clouds
8:55 AM 42.8 °F 35.1 °F 21.2 °F 42% 30.07 in 10.0 mi SW 16.1 mph 24.2 mph N/A   Mostly Cloudy
9:55 AM 46.4 °F 39.8 °F 23.0 °F 40% 30.06 in 10.0 mi WSW 16.1 mph 24.2 mph N/A   Mostly Cloudy
10:55 AM 48.2 °F - 24.8 °F 40% 30.04 in 10.0 mi WSW 13.8 mph 19.6 mph N/A   Mostly Cloudy
11:55 AM 51.1 °F - 27.9 °F 41% 30.04 in 10.0 mi West 16.1 mph 23.0 mph N/A   Scattered Clouds
12:25 PM 50.0 °F - 28.4 °F 43% 29.99 in 10.0 mi WSW 9.2 mph - N/A Rain Light Rain Showers
12:55 PM 48.2 °F - 35.6 °F 62% 30.03 in 10.0 mi West 13.8 mph - N/A   Mostly Cloudy
1:55 PM 50.0 °F - 33.8 °F 54% 30.02 in 10.0 mi West 16.1 mph - N/A   Mostly Cloudy
2:55 PM 51.8 °F - 33.8 °F 50% 30.00 in 10.0 mi West 17.3 mph 21.9 mph N/A   Partly Cloudy
3:55 PM 51.8 °F - 32.0 °F 47% 30.00 in 10.0 mi West 15.0 mph - N/A   Partly Cloudy
4:55 PM 51.8 °F - 32.0 °F 47% 30.00 in 10.0 mi West 18.4 mph 21.9 mph N/A   Clear
5:55 PM 50.0 °F - 28.4 °F 43% 30.01 in 10.0 mi NW 13.8 mph - N/A   Clear
6:55 PM 48.2 °F - 28.4 °F 46% 30.02 in 10.0 mi NW 9.2 mph - N/A   Clear
7:55 PM 42.8 °F 37.0 °F 26.6 °F 53% 30.03 in 10.0 mi NW 10.4 mph - N/A   Clear
8:55 PM 32.0 °F 24.2 °F 24.8 °F 75% 30.06 in 10.0 mi WNW 9.2 mph - N/A   Clear
9:55 PM 30.2 °F 23.4 °F 24.8 °F 80% 30.08 in 10.0 mi WNW 6.9 mph - N/A   Clear
10:55 PM 28.4 °F 19.7 °F 24.8 °F 86% 30.09 in 10.0 mi WNW 9.2 mph - N/A   Clear
11:55 PM 28.9 °F 21.9 °F 23.9 °F 81% 30.10 in 10.0 mi NW 6.9 mph - N/A   Clear